Gadsden, AL

5:12 PM CDT on October 20, 2019 (GMT -0500)
Gadsden Municipal

Weather History for KGAD - May, 2019

Change the Weather History Date:

Saturday, May 25, 2019

  Actual Average Record
Temperature  
Mean Temperature 78 °F -  
Max Temperature 91 °F 79 °F 94 °F (1933)
Min Temperature 64 °F 57 °F 46 °F (2005)
Cooling Degree Days 12    
Growing Degree Days 28 (Base 50)    
Moisture  
Dew Point 72 °F    
Average Humidity 77    
Maximum Humidity 100    
Minimum Humidity 47    
Precipitation  
Precipitation 0.00 in - - ()
Sea Level Pressure  
Sea Level Pressure 30.14 in    
Wind  
Wind Speed 1 mph ()    
Max Wind Speed 9 mph    
Max Gust Speed -    
Visibility 6.6 miles    
Events      
Averages and records for this station are not official NWS values.
T = Trace of Precipitation, MM = Missing Value Source: Averaged Metar Reports

Daily Weather History Graph

Daily Weather History Graph

Search for Another Location

Airport or City:

Astronomy

May. 25, 2019 Rise Set
Actual Time 5:37 AM CDT 7:45 PM CDT
Civil Twilight 5:08 AM CDT 8:14 PM CDT
Nautical Twilight 4:34 AM CDT 8:48 PM CDT
Astronomical Twilight 3:57 AM CDT 9:26 PM CDT
Moon 12:49 AM CDT (5/25) 11:32 AM CDT (5/25)
Length of Visible Light 15h 05m
Length of Day
14h 08m
Waning Gibbous, 59% of the Moon is Illuminated
May 25
Waning Gibbous
May 26
Last Quarter
Jun 3
New
Jun 10
First Quarter
Jun 17
Full

Hourly Weather History & Observations

Time (CDT) Temp. Heat Index Dew Point Humidity Pressure Visibility Wind Dir Wind Speed Gust Speed Precip Events Conditions
12:34 AM 69.8 °F - 69.8 °F 100% 30.11 in 1.0 mi Calm Calm - N/A   Clear
12:42 AM 68.0 °F - 68.0 °F 100% 30.11 in 0.8 mi Calm Calm - N/A   Clear
12:44 AM 69.8 °F - 69.8 °F 100% 30.11 in 1.2 mi Calm Calm - N/A   Clear
12:46 AM 69.8 °F - 69.8 °F 100% 30.11 in 3.0 mi Calm Calm - N/A   Clear
12:56 AM 69.1 °F - - N/A% 30.10 in 9.0 mi Calm Calm - N/A   Clear
1:04 AM 68.0 °F - - N/A% 30.10 in 1.5 mi Calm Calm - N/A   Clear
1:12 AM 69.8 °F - - N/A% 30.11 in 3.0 mi Calm Calm - N/A   Clear
1:56 AM 68.0 °F - - N/A% 30.11 in 9.0 mi Calm Calm - N/A   Clear
2:32 AM 66.2 °F - - N/A% 30.12 in 2.5 mi Calm Calm - N/A   Clear
2:41 AM 66.2 °F - - N/A% 30.13 in 5.0 mi Calm Calm - N/A   Haze
2:56 AM 66.9 °F - - N/A% 30.12 in 6.0 mi Calm Calm - N/A   Haze
3:51 AM 64.4 °F - - N/A% 30.15 in 1.8 mi Calm Calm - N/A   Clear
3:56 AM 66.0 °F - - N/A% 30.14 in 1.2 mi Calm Calm - N/A   Clear
4:01 AM 66.2 °F - - N/A% 30.15 in 4.0 mi Calm Calm - N/A   Haze
4:47 AM 66.2 °F - - N/A% 30.16 in 1.8 mi Calm Calm - N/A   Clear
4:56 AM 64.9 °F - - N/A% 30.16 in 1.8 mi Calm Calm - N/A   Clear
5:03 AM 66.2 °F - - N/A% 30.16 in 2.0 mi Calm Calm - N/A   Clear
5:11 AM 64.4 °F - - N/A% 30.16 in 6.0 mi Calm Calm - N/A   Haze
5:56 AM 64.9 °F - - N/A% 30.17 in 7.0 mi Calm Calm - N/A   Clear
6:56 AM 70.0 °F - - N/A% 30.18 in 9.0 mi Calm Calm - N/A   Clear
7:56 AM 75.0 °F - 73.0 °F 94% 30.19 in 10.0 mi Calm Calm - N/A   Clear
8:56 AM 80.1 °F 84.5 °F 73.9 °F 81% 30.20 in 10.0 mi SW 3.5 mph - N/A   Clear
9:56 AM 84.0 °F 91.2 °F 73.9 °F 72% 30.20 in 10.0 mi SSW 3.5 mph - N/A   Clear
10:56 AM 87.1 °F 96.3 °F 75.0 °F 67% 30.20 in 10.0 mi Calm Calm - N/A   Partly Cloudy
11:56 AM 88.0 °F 94.7 °F 72.0 °F 59% 30.18 in 10.0 mi West 9.2 mph - N/A   Partly Cloudy
12:56 PM 90.0 °F 95.4 °F 70.0 °F 52% 30.17 in 10.0 mi Variable 5.8 mph - N/A   Partly Cloudy
1:56 PM 91.0 °F 95.6 °F 69.1 °F 48% 30.16 in 10.0 mi Variable 6.9 mph - N/A   Clear
2:56 PM 91.9 °F 97.4 °F 70.0 °F 48% 30.14 in 10.0 mi Variable 4.6 mph - N/A   Clear
3:56 PM 91.9 °F 96.9 °F 69.1 °F 47% 30.12 in 10.0 mi SSW 8.1 mph - N/A   Partly Cloudy
4:56 PM 91.9 °F 96.9 °F 69.1 °F 47% 30.12 in 10.0 mi South 3.5 mph - N/A   Scattered Clouds
5:56 PM 90.0 °F 95.4 °F 70.0 °F 52% 30.12 in 10.0 mi West 5.8 mph - N/A   Clear
6:56 PM 88.0 °F 95.6 °F 73.0 °F 61% 30.11 in 9.0 mi Calm Calm - N/A   Clear
7:56 PM 79.0 °F - 77.0 °F 94% 30.12 in 10.0 mi Calm Calm - N/A   Clear
8:56 PM 77.0 °F - 75.9 °F 96% 30.12 in 10.0 mi Calm Calm - N/A   Clear
9:56 PM 73.9 °F - 73.9 °F 100% 30.13 in 10.0 mi Calm Calm - N/A   Partly Cloudy
10:56 PM 72.0 °F - 72.0 °F 100% 30.14 in 10.0 mi Calm Calm - N/A   Clear
11:56 PM 70.0 °F - 70.0 °F 100% 30.14 in 7.0 mi SSW 3.5 mph - N/A   Partly Cloudy